Tracking 29892 objects as of 21-Nov-2024
HD Live streaming from Space Station
objects crossing your sky now

STARLINK-4256

Track STARLINK-4256 now!
10-day predictions
STARLINK-4256 is classified as:


NORAD ID: 52994
Int'l Code: 2022-076J
Perigee: 545.9 km
Apogee: 547.9 km
Inclination: 53.2 °
Period: 95.4 minutes
Semi major axis: 6917 km
RCS: Unknown
Launch date: July 7, 2022
Source: United States (US)
Launch site: AIR FORCE EASTERN TEST RANGE (AFETR)
Your satellite tracking list
Your tracking list is empty




NASA's NSSDC Master Catalog

Two Line Element Set (TLE):
1 52994U 22076J   24324.56039258  .00000991  00000-0  80329-4 0  9994
2 52994  53.2176  67.0556 0001445 105.5153 254.5999 15.08842369131585
Source of the keplerian elements: AFSPC